Wind_Speed
19 12 13 11 12 15 21 22 19 17 15 13 14 13 14 15 15 18 24 28 32 34 36 38 40 42 41 41 38 38 36 33 33 33 32 34 37 38 40 42 43 43 40 36
17 14 18 16 16 18 19 21 22 23 22 19 18 16 16 15 20 20 23 26 28 31 33 35 38 40 40 37 40 40 35 36 32 31 30 35 36 38 40 42 42 39 34 29
9 10 10 15 25 22 21 21 20 23 22 18 15 17 17 15 19 19 20 23 25 27 29 33 37 37 37 38 41 41 41 35 29 29 32 34 36 37 40 40 39 36 30 27
6 4 1 11 13 15 17 20 22 23 21 19 16 16 17 19 17 20 18 18 22 26 30 33 35 38 37 40 43 44 39 32 27 29 32 34 36 38 39 37 36 33 31 29
5 10 12 14 12 12 11 13 10 10 12 13 17 17 18 18 17 16 21 24 24 25 27 30 35 38 40 44 44 48 43 22 26 29 33 34 36 37 36 35 33 31 28 27
8 4 4 3 9 9 10 10 6 9 5 7 16 18 15 17 19 24 26 22 22 23 24 29 34 39 42 46 49 45 28 24 24 29 33 34 37 36 35 33 31 30 28 27
12 8 7 10 14 11 5 4 10 12 15 20 19 12 18 22 25 27 27 28 28 27 30 33 38 41 46 48 42 22 21 20 24 30 32 36 35 33 31 30 29 28 27 25
8 7 7 9 3 2 8 16 23 23 16 21 23 25 27 29 29 28 29 30 32 34 34 40 43 45 49 47 31 20 18 22 25 28 33 35 33 30 29 29 29 28 27 23
7 3 11 10 17 15 20 22 22 24 23 22 25 25 26 29 30 29 29 33 35 39 43 42 47 51 47 34 16 15 18 22 25 30 32 31 30 29 27 26 28 28 26 25
13 6 10 11 19 21 20 18 19 20 22 23 26 26 28 28 33 32 35 37 38 40 42 45 47 42 35 19 14 13 17 23 28 30 31 29 28 27 26 26 26 26 25 24
15 17 13 11 11 14 19 22 23 24 25 27 26 27 30 33 35 35 37 36 38 40 41 41 39 30 16 12 12 16 21 25 29 30 31 30 27 25 24 24 26 25 25 25
11 12 17 13 21 25 24 26 26 25 26 29 29 32 34 35 35 34 34 36 34 40 38 29 22 17 16 15 16 20 25 28 29 31 30 29 28 28 26 26 25 24 24 25
18 22 22 23 29 26 26 26 27 28 31 35 34 35 34 33 32 31 32 33 31 27 23 20 16 19 19 17 21 25 28 29 31 31 30 29 29 29 30 28 27 25 25 24
25 23 24 23 28 25 26 27 30 31 33 31 31 31 29 26 28 25 25 20 15 14 17 20 19 15 18 22 25 27 29 30 31 31 30 30 30 30 30 30 30 28 28 25
26 25 26 26 25 28 29 28 29 29 29 30 26 27 22 19 17 14 13 16 20 20 18 17 17 21 25 26 27 30 32 32 31 31 32 32 30 31 31 30 31 31 29 27
28 28 28 29 26 24 22 23 26 26 25 22 20 17 14 14 14 14 14 14 15 16 20 23 23 24 27 28 30 33 34 35 33 33 33 33 32 32 31 31 32 32 31 27
25 23 23 22 21 22 22 20 19 17 15 14 14 14 14 14 15 15 17 19 20 21 23 25 27 29 30 31 32 34 36 34 38 38 37 36 36 35 34 34 34 33 32 29
21 20 19 18 17 15 13 14 13 13 13 13 14 14 16 16 17 19 20 22 23 24 26 28 30 32 33 34 36 38 38 40 40 40 40 40 40 40 39 37 35 35 32 29
11 8 9 10 10 10 11 12 12 14 15 15 15 16 17 19 21 22 24 24 26 29 31 34 35 37 37 38 40 41 43 43 42 42 41 41 42 40 38 36 34 34 31 28
7 8 9 10 11 12 13 13 13 14 15 16 17 19 20 23 24 26 28 30 32 37 38 39 40 42 44 45 45 45 44 42 40 38 37 36 36 37 33 30 31 30 28 26
9 10 11 12 13 13 14 16 17 17 18 19 20 22 23 25 28 31 34 37 38 41 44 47 49 49 49 47 45 41 38 40 43 40 40 39 41 35 28 28 29 28 27 25
11 12 14 14 14 15 16 17 18 19 20 22 23 26 28 31 34 36 39 43 46 49 51 52 52 52 50 48 46 42 39 39 39 42 40 39 40 32 28 31 34 32 29 28
14 15 15 15 16 17 18 19 20 21 23 24 27 31 34 37 41 44 48 51 53 55 54 54 53 49 46 43 41 38 36 35 30 33 37 38 34 31 31 32 33 36 34 33
15 14 15 17 19 20 20 21 23 24 26 30 34 37 40 43 47 50 51 52 52 51 49 49 46 44 41 38 34 32 30 32 33 35 37 36 29 28 31 32 32 32 31 31
15 17 19 20 21 21 22 23 25 28 32 36 40 43 46 49 51 51 50 49 47 45 43 43 43 41 39 35 32 29 31 34 31 32 31 29 28 27 28 32 33 31 30 29
19 20 21 22 22 24 25 27 30 34 38 42 45 48 51 51 49 48 45 43 42 42 43 43 42 40 37 33 30 29 28 28 28 29 29 28 28 29 30 32 34 32 30 29
21 22 23 25 25 26 29 32 36 40 44 47 49 51 50 47 44 42 40 40 41 42 42 41 40 37 35 33 31 31 30 30 29 29 30 29 30 30 32 34 34 32 30 29
Wind_Direction
241 261 264 257 252 237 234 242 249 264 270 284 284 273 269 263 271 241 246 260 261 265 269 272 274 277 276 278 277 280 289 293 297 300 304 312 314 317 320 322 323 322 322 322
247 251 261 258 255 248 245 246 251 261 273 283 278 265 272 258 281 284 271 270 269 270 272 276 277 275 274 274 276 281 288 286 291 295 305 309 312 316 318 321 321 321 319 314
248 250 255 264 258 251 250 249 255 262 272 285 276 288 281 272 277 289 275 271 269 269 271 271 270 272 274 273 276 283 282 284 288 293 306 308 312 317 319 319 319 320 316 314
248 256 269 260 257 254 248 255 261 267 273 277 276 277 280 282 281 290 280 275 279 278 274 269 271 275 270 272 278 278 279 275 295 304 307 311 315 317 317 317 317 316 313 315
208 226 267 279 260 265 263 271 276 265 271 272 266 297 313 302 294 281 289 294 291 282 280 277 273 270 273 271 274 281 276 293 299 308 308 312 314 316 316 314 313 313 309 312
217 223 238 260 255 264 270 275 262 263 285 286 302 302 297 282 282 286 295 299 295 285 288 284 277 273 276 274 274 268 271 278 304 306 308 313 314 315 314 312 312 310 313 309
235 238 260 247 270 274 251 249 275 281 295 296 295 289 273 283 297 300 301 298 297 291 290 285 278 278 271 264 260 268 282 302 305 305 312 312 312 312 312 311 308 309 309 304
209 229 254 263 274 238 255 282 289 293 296 287 286 288 292 295 298 296 294 287 282 283 280 279 275 269 259 260 261 270 298 306 308 311 309 309 311 312 311 310 311 310 307 303
220 267 263 266 286 283 289 288 287 287 289 284 292 293 291 291 296 294 288 283 281 279 282 283 286 276 260 263 265 294 310 308 308 305 308 311 313 313 312 311 309 309 307 306
270 278 277 271 287 288 290 292 290 290 291 290 292 294 295 292 297 296 289 288 285 282 284 284 268 257 260 262 283 317 311 305 303 309 313 313 312 310 310 312 310 309 305 303
281 290 284 292 292 278 291 289 289 290 292 290 295 296 295 294 295 291 291 293 291 290 279 265 259 253 266 295 322 314 306 305 306 311 313 311 310 308 309 310 309 310 305 300
274 266 267 278 266 287 290 288 290 290 290 294 297 296 294 294 294 294 293 295 297 292 265 263 271 288 310 326 317 306 300 301 308 311 312 310 308 307 307 309 309 309 303 295
268 273 278 278 279 286 287 288 291 293 293 295 295 296 297 297 293 294 297 290 279 275 277 284 311 333 338 316 300 295 300 305 308 310 309 309 310 307 304 305 309 308 304 297
278 278 278 276 281 288 288 289 292 291 294 298 305 307 306 303 305 307 294 294 290 298 319 331 337 317 300 295 295 298 300 302 305 307 307 307 307 309 309 308 307 306 303 298
275 276 277 282 283 286 289 289 291 293 297 302 304 309 316 316 310 298 297 300 315 329 329 317 304 300 296 296 296 298 300 301 305 307 305 303 304 305 307 309 306 303 299 296
270 275 279 283 286 288 290 283 291 297 302 305 311 316 312 304 298 298 304 304 307 304 301 301 302 298 296 297 297 297 299 302 304 304 301 301 301 303 306 307 307 304 298 292
271 273 278 280 285 290 294 296 299 305 309 312 309 304 300 298 296 297 303 310 310 306 304 301 300 299 300 300 298 298 300 300 304 305 305 302 302 302 303 303 302 301 297 289
276 279 283 287 290 292 294 300 304 304 302 301 299 300 301 305 309 308 308 308 307 306 303 300 301 300 299 299 298 299 298 300 301 300 299 300 301 302 301 299 297 296 294 287
275 272 279 286 293 297 298 295 294 294 296 300 304 308 310 309 308 308 308 307 306 303 300 302 302 301 301 300 299 298 297 298 297 296 296 298 300 302 301 298 293 290 289 284
287 295 298 296 295 292 291 294 298 302 305 307 307 307 307 307 308 309 309 310 309 306 307 305 303 302 302 301 298 296 294 296 298 295 296 297 303 303 300 294 292 289 285 281
287 289 288 286 285 289 294 297 299 301 302 303 304 305 306 309 311 311 310 308 308 307 306 305 304 302 300 299 297 295 295 295 297 293 299 294 301 304 297 291 288 284 282 277
274 275 277 279 282 287 291 294 296 298 301 303 308 310 311 311 311 310 310 309 308 308 306 305 303 301 301 299 296 293 289 282 280 283 289 287 296 299 290 279 282 283 281 276
267 270 275 281 288 292 294 295 297 300 304 306 308 311 312 313 313 313 312 312 311 311 310 308 308 307 304 300 295 291 290 289 289 283 283 286 286 297 301 292 283 283 280 275
268 272 278 285 291 295 296 298 301 304 306 310 312 312 313 313 313 314 314 313 312 312 312 312 312 310 309 304 297 290 282 283 283 281 283 277 283 296 302 298 295 289 284 282
275 279 286 293 296 296 298 300 301 304 308 310 312 312 314 314 315 315 315 315 316 316 316 316 315 313 311 307 300 290 280 280 282 283 275 277 287 293 300 300 299 295 288 282
286 290 293 294 296 297 297 300 304 306 309 311 312 313 314 315 316 316 318 318 318 320 319 317 316 314 312 308 302 296 292 290 285 280 279 282 286 292 297 299 298 295 291 286
287 293 296 296 295 296 299 302 305 307 309 311 312 313 314 315 317 318 318 320 321 320 319 318 317 316 314 309 303 297 295 292 289 287 286 287 288 292 297 299 295 292 290 286
Height
3109 3109 3109 3110 3111 3111 3111 3111 3112 3110 3110 3110 3110 3109 3108 3106 3104 3105 3103 3101 3099 3097 3096 3095 3093 3092 3090 3087 3085 3083 3079 3076 3072 3069 3065 3061 3056 3051 3044 3038 3032 3026 3020 3014
3105 3107 3106 3106 3107 3107 3107 3107 3107 3107 3106 3107 3105 3104 3102 3101 3099 3098 3097 3096 3094 3093 3091 3089 3087 3085 3082 3080 3077 3075 3071 3069 3065 3062 3058 3054 3049 3044 3037 3031 3025 3020 3014 3008
3104 3102 3103 3102 3099 3101 3103 3103 3104 3103 3103 3102 3099 3097 3096 3096 3093 3093 3092 3091 3089 3087 3085 3083 3080 3078 3076 3074 3070 3068 3064 3060 3057 3053 3050 3046 3041 3035 3029 3023 3018 3013 3009 3005
3101 3101 3103 3096 3095 3096 3097 3098 3099 3098 3098 3098 3095 3093 3091 3090 3089 3087 3087 3085 3084 3082 3079 3077 3075 3071 3070 3066 3062 3059 3055 3051 3048 3046 3043 3039 3033 3027 3022 3017 3011 3006 3001 2998
3098 3097 3095 3094 3093 3093 3092 3094 3094 3093 3093 3093 3089 3088 3087 3084 3084 3083 3081 3080 3077 3075 3074 3071 3069 3065 3062 3059 3054 3050 3046 3044 3042 3039 3036 3031 3026 3020 3015 3010 3005 3001 2996 2991
3094 3095 3093 3089 3088 3088 3089 3091 3087 3088 3087 3087 3086 3085 3087 3081 3079 3078 3075 3073 3071 3069 3067 3064 3061 3058 3055 3051 3045 3039 3035 3034 3033 3032 3029 3024 3018 3013 3008 3003 2998 2993 2989 2986
3091 3091 3089 3086 3085 3086 3089 3091 3084 3085 3084 3083 3082 3083 3078 3077 3074 3071 3069 3066 3064 3063 3060 3057 3052 3050 3044 3037 3033 3032 3030 3027 3027 3025 3022 3017 3011 3006 3001 2997 2992 2986 2983 2979
3088 3088 3086 3083 3083 3086 3084 3083 3081 3079 3078 3076 3075 3074 3072 3069 3067 3065 3063 3060 3058 3055 3050 3046 3041 3038 3030 3025 3024 3023 3023 3023 3021 3018 3015 3010 3004 2998 2993 2989 2986 2981 2977 2973
3086 3085 3081 3081 3081 3079 3078 3077 3076 3073 3073 3070 3068 3067 3065 3061 3059 3057 3055 3051 3049 3045 3041 3036 3032 3026 3020 3020 3017 3017 3018 3019 3015 3012 3007 3001 2997 2992 2987 2983 2980 2976 2971 2967
3080 3080 3078 3077 3075 3073 3072 3070 3070 3068 3066 3064 3062 3060 3058 3054 3050 3049 3045 3041 3039 3034 3031 3027 3021 3016 3015 3013 3013 3012 3012 3012 3009 3004 3000 2995 2990 2986 2981 2977 2973 2970 2966 2963
3074 3074 3074 3072 3070 3067 3067 3064 3063 3062 3059 3056 3056 3053 3050 3046 3043 3040 3035 3032 3029 3026 3022 3017 3013 3010 3009 3008 3008 3008 3008 3005 3001 2996 2991 2988 2983 2980 2976 2972 2968 2963 2960 2957
3070 3069 3068 3068 3063 3062 3060 3058 3056 3055 3053 3049 3048 3045 3041 3037 3033 3030 3027 3023 3020 3016 3012 3011 3011 3009 3008 3005 3004 3003 3000 2997 2993 2989 2984 2980 2976 2973 2970 2966 2962 2958 2954 2951
3065 3062 3062 3060 3054 3055 3054 3052 3050 3048 3045 3041 3039 3036 3032 3029 3026 3022 3018 3015 3012 3011 3011 3010 3009 3006 3002 3000 2998 2996 2993 2989 2986 2982 2978 2973 2969 2965 2962 2958 2954 2951 2948 2945
3056 3056 3054 3054 3048 3049 3047 3045 3043 3040 3037 3033 3030 3027 3024 3021 3018 3015 3014 3012 3012 3011 3008 3005 3001 2999 2997 2995 2992 2990 2987 2982 2978 2975 2971 2966 2962 2958 2954 2949 2946 2944 2941 2938
3048 3048 3047 3045 3044 3042 3040 3037 3035 3032 3030 3027 3023 3020 3017 3015 3013 3012 3012 3010 3007 3004 3001 2999 2996 2994 2991 2989 2986 2982 2979 2975 2972 2967 2963 2959 2955 2951 2947 2942 2939 2936 2933 2931
3040 3040 3038 3037 3035 3033 3032 3030 3028 3025 3023 3020 3017 3015 3013 3012 3011 3009 3007 3005 3002 2999 2996 2993 2991 2988 2984 2982 2979 2975 2971 2967 2964 2960 2955 2951 2947 2943 2938 2935 2931 2928 2925 2923
3033 3032 3031 3030 3029 3027 3025 3023 3021 3019 3017 3015 3014 3012 3011 3009 3007 3004 3002 2999 2997 2994 2991 2987 2984 2981 2978 2975 2971 2966 2962 2957 2953 2949 2945 2941 2937 2933 2930 2926 2923 2920 2917 2915
3026 3026 3025 3024 3022 3021 3019 3018 3016 3015 3014 3012 3011 3009 3007 3005 3003 3001 2997 2995 2992 2988 2985 2981 2977 2974 2970 2966 2962 2957 2952 2948 2943 2939 2935 2931 2927 2923 2920 2917 2913 2910 2908 2906
3020 3020 3019 3019 3018 3017 3015 3014 3013 3012 3010 3009 3007 3005 3003 3000 2998 2995 2992 2989 2986 2981 2977 2973 2969 2965 2960 2956 2951 2946 2941 2937 2933 2928 2924 2920 2916 2912 2908 2905 2903 2900 2898 2896
3016 3016 3015 3014 3013 3013 3012 3011 3009 3008 3006 3004 3002 3000 2998 2995 2992 2989 2986 2982 2978 2972 2969 2964 2959 2954 2949 2944 2939 2933 2929 2925 2921 2917 2913 2909 2905 2902 2898 2895 2893 2891 2889 2888
3012 3012 3011 3011 3010 3009 3008 3007 3005 3003 3002 3000 2997 2995 2992 2989 2985 2981 2977 2973 2968 2963 2957 2952 2946 2940 2935 2930 2925 2921 2917 2913 2910 2906 2902 2899 2896 2893 2890 2887 2884 2882 2880 2879
3009 3009 3009 3008 3007 3006 3004 3003 3001 2999 2997 2994 2991 2988 2985 2981 2977 2973 2968 2962 2957 2950 2944 2938 2931 2925 2920 2915 2910 2906 2903 2901 2898 2895 2892 2888 2886 2883 2881 2878 2875 2873 2872 2871
3005 3005 3004 3003 3002 3001 2999 2998 2996 2994 2991 2988 2984 2981 2976 2972 2966 2961 2955 2949 2942 2935 2928 2921 2915 2909 2904 2899 2894 2891 2889 2887 2885 2883 2881 2878 2876 2873 2871 2868 2866 2863 2862 2860
3001 3001 3000 2998 2997 2996 2994 2992 2989 2987 2984 2980 2976 2971 2967 2962 2956 2950 2943 2936 2929 2922 2914 2907 2901 2895 2890 2886 2882 2879 2878 2876 2874 2872 2869 2867 2865 2863 2860 2858 2855 2853 2851 2850
2997 2996 2995 2994 2992 2990 2988 2985 2982 2979 2976 2972 2967 2962 2956 2950 2944 2937 2930 2923 2916 2909 2903 2896 2890 2885 2879 2875 2871 2868 2866 2864 2863 2860 2858 2856 2854 2853 2850 2849 2846 2843 2841 2839
2992 2991 2989 2987 2986 2984 2981 2978 2975 2971 2967 2962 2957 2950 2944 2938 2931 2925 2918 2912 2905 2899 2893 2887 2881 2875 2870 2865 2862 2859 2856 2854 2852 2850 2848 2846 2844 2842 2841 2839 2836 2833 2831 2829
2986 2985 2983 2981 2979 2977 2974 2971 2967 2962 2957 2951 2945 2939 2933 2927 2921 2914 2908 2902 2896 2890 2884 2878 2871 2866 2861 2856 2853 2850 2847 2844 2842 2840 2838 2836 2834 2832 2830 2828 2826 2823 2821 2819